Location: Silverdale
(47.6506°N, 122.6941°W)
Time: 03:54:06
(UTC+00:00)

Altair - Pass Details

Date: 11 October 2022
Orbit: 1501 x 1682 km, 47.2° (Epoch: 05 December)

Event Time Altitude Azimuth Distance (km) Brightness Sun altitude
Rises 15:12:20 0° 282° (WNW) 4,812 9.4 7.0°
Reaches altitude 10° 15:15:24 10° 281° (WNW) 3,849 9.0 7.5°
Maximum altitude 15:25:16 77° 198° (SSW) 1,697 8.0 9.1°
Drops below altitude 10° 15:35:24 10° 115° (ESE) 3,939 13.9 10.6°
Sets 15:38:34 0° 114° (ESE) 4,930 12.4 11.1°
